St. Augustine, FL

6:15 AM EST on November 21, 2017 (GMT -0500)
Saint Augustine

Weather History for KSGJ - July, 2013

Change the Weather History Date:

Saturday, July 13, 2013

  Actual Average Record
Temperature  
Mean Temperature 78 °F -  
Max Temperature 84 °F 86 °F 100 °F (1980)
Min Temperature 71 °F 71 °F 64 °F (1990)
Cooling Degree Days 12    
Growing Degree Days 28 (Base 50)    
Moisture  
Dew Point 73 °F    
Average Humidity 86    
Maximum Humidity 94    
Minimum Humidity 70    
Precipitation  
Precipitation 0.26 in - - ()
Sea Level Pressure  
Sea Level Pressure 29.99 in    
Wind  
Wind Speed 5 mph (SSE)    
Max Wind Speed 18 mph    
Max Gust Speed 30 mph    
Visibility 8 miles    
Events Rain , Thunderstorm    
Averages and records for this station are not official NWS values.
T = Trace of Precipitation, MM = Missing Value Source: NWS Daily Summary

Daily Weather History Graph

Daily Weather History Graph

Search for Another Location

Airport or City:

Trip Planner

Search our weather history database for the weather conditions in past years. The results will help you decide how hot, cold, wet, or windy it might be!

Date:

Astronomy

Jul. 13, 2013 Rise Set
Actual Time 6:33 AM EDT 8:28 PM EDT
Civil Twilight 6:06 AM EDT 8:55 PM EDT
Nautical Twilight 5:34 AM EDT 9:27 PM EDT
Astronomical Twilight 4:59 AM EDT 10:02 PM EDT
Moon 11:22 AM EDT (7/13) 11:36 PM EDT (7/13)
Length of Visible Light 14h 48m
Length of Day
13h 54m
Waxing Crescent, 25% of the Moon is Illuminated
Jul 13
Waxing Crescent
Jul 15
First Quarter
Jul 22
Full
Jul 29
Last Quarter
Aug 6
New

Hourly Weather History & Observations

Time (EDT) Temp. Heat Index Dew Point Humidity Pressure Visibility Wind Dir Wind Speed Gust Speed Precip Events Conditions
12:58 AM 75.0 °F - 73.0 °F 94% 29.96 in 10.0 mi Calm Calm - N/A   Unknown
1:58 AM 73.9 °F - 72.0 °F 93% 29.94 in 9.0 mi South 4.6 mph - N/A   Unknown
2:58 AM 73.9 °F - 72.0 °F 93% 29.93 in 10.0 mi Calm Calm - N/A   Unknown
3:58 AM 75.0 °F - 73.0 °F 94% 29.94 in 10.0 mi Calm Calm - N/A   Unknown
4:58 AM 73.9 °F - 72.0 °F 93% 29.95 in 10.0 mi Calm Calm - N/A   Unknown
5:58 AM 75.0 °F - 73.0 °F 94% 29.95 in 10.0 mi South 4.6 mph - N/A   Unknown
6:58 AM 75.0 °F - 73.0 °F 94% 29.95 in 5.0 mi Calm Calm - N/A   Scattered Clouds
7:58 AM 77.0 °F - 73.0 °F 88% 29.96 in 5.0 mi SSW 3.5 mph - N/A   Scattered Clouds
8:58 AM 79.0 °F - 73.9 °F 84% 29.99 in 8.0 mi Calm Calm - N/A   Partly Cloudy
9:58 AM 81.0 °F 86.2 °F 73.9 °F 79% 29.99 in 8.0 mi South 3.5 mph - N/A   Partly Cloudy
10:58 AM 82.0 °F 88.6 °F 75.0 °F 79% 29.99 in 8.0 mi Variable 3.5 mph - N/A   Scattered Clouds
11:58 AM 84.0 °F 91.2 °F 73.9 °F 72% 30.00 in 10.0 mi ESE 10.4 mph - 0.00 in   Unknown
12:19 PM 84.2 °F 90.9 °F 73.4 °F 70% 29.99 in 10.0 mi ESE 11.5 mph - N/A Thunderstorm Unknown
12:34 PM 84.2 °F 90.9 °F 73.4 °F 70% 29.99 in 10.0 mi ESE 11.5 mph - N/A   Unknown
12:58 PM 84.0 °F 91.9 °F 75.0 °F 74% 29.99 in 7.0 mi ESE 13.8 mph - N/A   Scattered Clouds
1:58 PM 84.0 °F 91.9 °F 75.0 °F 74% 29.99 in 10.0 mi ESE 17.3 mph - 0.00 in   Unknown
2:58 PM 84.0 °F 92.6 °F 75.9 °F 76% 29.97 in 8.0 mi ESE 15.0 mph - N/A   Scattered Clouds
3:58 PM 84.0 °F 91.9 °F 75.0 °F 74% 29.97 in 10.0 mi ESE 15.0 mph - N/A   Unknown
4:58 PM 81.0 °F 86.2 °F 73.9 °F 79% 29.99 in 10.0 mi SSE 9.2 mph - N/A   Mostly Cloudy
5:44 PM 80.6 °F 85.4 °F 73.4 °F 79% 30.01 in 10.0 mi SSE 11.5 mph - N/A Thunderstorm Mostly Cloudy
5:49 PM 80.6 °F 85.4 °F 73.4 °F 79% 30.02 in 5.0 mi SSW 18.4 mph 25.3 mph N/A Thunderstorm Haze
5:58 PM 75.9 °F - 70.0 °F 82% 30.01 in 5.0 mi WSW 15.0 mph 29.9 mph N/A Thunderstorm Haze
6:02 PM 75.2 °F - 69.8 °F 83% 30.02 in 5.0 mi WSW 15.0 mph 29.9 mph 0.01 in Rain , Thunderstorm Light Rain
6:08 PM 73.4 °F - 71.6 °F 94% 30.02 in 1.2 mi SSW 10.4 mph 23.0 mph 0.05 in Rain Heavy Rain
6:58 PM 73.0 °F - 71.1 °F 93% 30.01 in 1.2 mi SE 4.6 mph - 0.22 in Rain Rain
7:02 PM 71.6 °F - 69.8 °F 94% 30.01 in 8.0 mi SSE 4.6 mph - 0.00 in Rain Light Rain
7:45 PM 73.4 °F - 71.6 °F 94% 29.99 in 5.0 mi ESE 8.1 mph - 0.03 in Rain Light Rain
7:58 PM 73.0 °F - 71.1 °F 93% 29.99 in 5.0 mi ESE 6.9 mph - 0.03 in Rain Light Rain
8:58 PM 73.0 °F - 71.1 °F 93% 29.97 in 10.0 mi SE 6.9 mph - 0.01 in   Unknown
9:58 PM 73.0 °F - 71.1 °F 93% 30.00 in 10.0 mi South 5.8 mph - N/A   Unknown
10:58 PM 73.9 °F - 72.0 °F 93% 30.02 in 10.0 mi SSE 4.6 mph - N/A   Unknown
11:58 PM 75.0 °F - 73.0 °F 94% 30.03 in 10.0 mi South 4.6 mph - N/A   Unknown